Location: Pandora
(40.9481°N, 83.9611°W)
Time: 15:42:55
(UTC-04:00)

Tiangong - Pass Details

Date: 26 September 2021
Orbit: 382 x 385 km, 41.5° (Epoch: 19 October)

Event Time Altitude Azimuth Distance (km) Brightness Sun altitude
Exits shadow 06:08:45 17° 193° (SSW) 1,062 3.0 -15.6°
Maximum altitude 06:10:16 24° 152° (SSE) 841 2.9 -15.3°
Drops below altitude 10° 06:12:52 10° 96° (E) 1,393 5.1 -14.9°
Sets 06:15:10 0° 82° (E) 2,248 6.9 -14.4°
